Satellite-Ground Cal/Val Region Overpasses Predictions

Prediction of Satellite NPP Overpassing Cal/Val Region: PacNW

Region Location: (Latitude: 10.00, Longitude: 139.50) to (Latitude: 22.70, Longitude: 165.60).

Table of predicted overpasses for the next 14.0 days since TLE Epoch: 7/26/2021
Interval Starting Time Starting Location Ending Time Ending Location
1 07/26/2021 03:05:00 ( 10.03, 153.45) 07/26/2021 03:08:35 ( 22.65, 150.44)
2 07/26/2021 15:36:54 ( 22.65, 150.68) 07/26/2021 15:40:29 ( 10.03, 147.68)
3 07/27/2021 02:45:59 ( 10.01, 158.21) 07/27/2021 02:49:35 ( 22.69, 155.19)
4 07/27/2021 15:17:53 ( 22.67, 155.44) 07/27/2021 15:21:28 ( 10.05, 152.44)
5 07/28/2021 02:26:58 ( 10.05, 162.95) 07/28/2021 02:30:33 ( 22.68, 159.95)
6 07/28/2021 14:58:51 ( 22.68, 160.20) 07/28/2021 15:02:27 ( 10.00, 157.18)
7 07/29/2021 02:10:31 ( 19.08, 165.59) 07/29/2021 02:11:32 ( 22.66, 164.71)
8 07/29/2021 03:49:27 ( 10.04, 142.34) 07/29/2021 03:52:50 ( 21.96, 139.51)
9 07/29/2021 14:39:50 ( 22.70, 164.96) 07/29/2021 14:43:26 ( 10.02, 161.94)
10 07/29/2021 16:21:20 ( 22.70, 139.58) 07/29/2021 16:21:25 ( 22.40, 139.51)
11 07/30/2021 03:30:25 ( 10.03, 147.10) 07/30/2021 03:34:00 ( 22.65, 144.09)
12 07/30/2021 16:02:19 ( 22.65, 144.33) 07/30/2021 16:05:54 ( 10.03, 141.33)
13 07/31/2021 03:11:24 ( 10.01, 151.86) 07/31/2021 03:15:00 ( 22.69, 148.84)
14 07/31/2021 15:43:18 ( 22.67, 149.09) 07/31/2021 15:46:53 ( 10.05, 146.08)
15 08/01/2021 02:52:23 ( 10.05, 156.60) 08/01/2021 02:55:58 ( 22.68, 153.60)
16 08/01/2021 15:24:16 ( 22.68, 153.85) 08/01/2021 15:27:52 ( 10.00, 150.83)
17 08/02/2021 02:33:22 ( 10.04, 161.36) 08/02/2021 02:36:57 ( 22.66, 158.36)
18 08/02/2021 15:05:15 ( 22.70, 158.61) 08/02/2021 15:08:51 ( 10.02, 155.59)
19 08/03/2021 02:15:00 ( 12.32, 165.59) 08/03/2021 02:17:56 ( 22.65, 163.12)
20 08/03/2021 03:55:50 ( 10.03, 140.74) 08/03/2021 03:57:21 ( 15.37, 139.51)
21 08/03/2021 14:46:14 ( 22.65, 163.35) 08/03/2021 14:49:49 ( 10.03, 160.35)
22 08/04/2021 03:36:49 ( 10.01, 145.50) 08/04/2021 03:40:25 ( 22.69, 142.49)
23 08/04/2021 14:30:12 ( 12.16, 165.59) 08/04/2021 14:30:48 ( 10.05, 165.11)
24 08/04/2021 16:08:43 ( 22.66, 142.74) 08/04/2021 16:12:18 ( 10.04, 139.73)
25 08/05/2021 03:17:48 ( 10.00, 150.26) 08/05/2021 03:21:24 ( 22.68, 147.24)
26 08/05/2021 15:49:41 ( 22.68, 147.50) 08/05/2021 15:53:16 ( 10.06, 144.49)
27 08/06/2021 02:58:47 ( 10.05, 155.01) 08/06/2021 03:02:22 ( 22.67, 152.00)
28 08/06/2021 15:30:40 ( 22.69, 152.26) 08/06/2021 15:34:16 ( 10.01, 149.24)
29 08/07/2021 02:39:46 ( 10.03, 159.77) 08/07/2021 02:43:21 ( 22.65, 156.76)
30 08/07/2021 15:11:39 ( 22.65, 157.00) 08/07/2021 15:15:14 ( 10.03, 154.00)
31 08/08/2021 02:20:44 ( 10.02, 164.53) 08/08/2021 02:24:20 ( 22.70, 161.51)
